Location: Sungai Bunut
(2.6333°N, 113.7333°E)
Time: 19:54:28
(UTC+00:00)

S-56A Canister/Altair - Pass Details

Date: 08 December 2023
Orbit: 640 x 2488 km, 38.9° (Epoch: 20 February)

Event Time Altitude Azimuth Distance (km) Brightness Sun altitude
Rises 21:00:32 0° 210° (SSW) 5,977 12.0 -18.6°
Reaches altitude 10° 21:05:43 10° 199° (SSW) 4,758 11.6 -17.4°
Maximum altitude 21:15:41 26° 148° (SSE) 3,047 11.2 -15.2°
Drops below altitude 10° 21:23:14 10° 95° (E) 3,564 12.2 -13.4°
Sets 21:26:24 0° 82° (E) 4,265 12.4 -12.7°
